This is the latest recevied weather packets stored in our database for station/object XE2RCS-1. If no packets are shown the sender has not sent any weather packets the latest 10 day(s).
| Time | Temp. | Humidity | Pressure | Rain* | Wind** | Luminosity | Snow |
|---|---|---|---|---|---|---|---|
| 1777839889 | 20° C | 52% | 1016 hPa | 0 mm | - | - | - |
| 1777839288 | 20° C | 52% | 1016 hPa | 0 mm | - | - | - |
| 1777838687 | 19.44° C | 54% | 1016 hPa | 0 mm | - | - | - |
| 1777838087 | 19.44° C | 55% | 1016 hPa | 0 mm | - | - | - |
| 1777837486 | 19.44° C | 64% | 1016 hPa | 0 mm | - | - | - |
| 1777836886 | 19.44° C | 64% | 1016 hPa | 0 mm | - | - | - |
| 1777836285 | 18.89° C | 56% | 1017 hPa | 0 mm | - | - | - |
| 1777835684 | 18.89° C | 58% | 1017 hPa | 0 mm | - | - | - |
| 1777835084 | 18.89° C | 94% | 1017 hPa | 0 mm | - | - | - |
| 1777834483 | 20° C | 94% | 1017 hPa | 0 mm | - | - | - |
| 1777833883 | 21.11° C | 94% | 1017 hPa | 0 mm | - | - | - |
| 1777833282 | 22.22° C | 94% | 1018 hPa | 0 mm | - | - | - |
| 1777832681 | 23.33° C | 94% | 1018 hPa | 0 mm | - | - | - |
| 1777832080 | 23.33° C | 94% | 1018 hPa | 0 mm | - | - | - |
| 1777831480 | 23.33° C | 94% | 1018 hPa | 0 mm | - | - | - |
| 1777830879 | 16.67° C | 68% | 1018 hPa | 0 mm | - | - | - |
| 1777830279 | 16.67° C | 68% | 1018 hPa | 0 mm | - | - | - |
| 1777829678 | 16.67° C | 68% | 1018 hPa | 0 mm | - | - | - |
| 1777829077 | 16.11° C | 10% | - | 0 mm | - | - | - |
| 1777828477 | 16.11° C | 10% | - | 0 mm | - | - | - |
| 1777827876 | 16.11° C | 10% | - | 0 mm | - | - | - |
| 1777827276 | 12.22° C | 82% | 1019 hPa | 0 mm | - | - | - |
| 1777826675 | 12.22° C | 82% | 1019 hPa | 0 mm | - | - | - |
| 1777826074 | 12.22° C | 82% | 1020 hPa | 0 mm | - | - | - |
| 1777825474 | 12.22° C | 82% | 1020 hPa | 0 mm | - | - | - |
* Rain latest hour (hover to see other rain measurements)
** Current wind speed in m/s (hover to see current wind gust speed)